This is the latest recevied weather packets stored in our database for station/object KC3SOZ. If no packets are shown the sender has not sent any weather packets the latest 10 day(s).
| Time | Temp. | Humidity | Pressure | Rain* | Wind** | Luminosity | Snow |
|---|---|---|---|---|---|---|---|
| 1777829360 | 12.22° C | 44% | 1014.7 hPa | 0 mm | - | 921 W/m² | - |
| 1777829057 | 11.67° C | 44% | 1014.7 hPa | 0 mm | - | 283 W/m² | - |
| 1777828753 | 12.78° C | 47% | 1014.8 hPa | 0 mm | - | 429 W/m² | - |
| 1777828450 | 12.22° C | 48% | 1015.1 hPa | 0 mm | - | 933 W/m² | - |
| 1777828148 | 11.67° C | 49% | 1014.9 hPa | 0 mm | - | 938 W/m² | - |
| 1777827844 | 11.11° C | 48% | 1015.3 hPa | 0 mm | - | 1025 W/m² | - |
| 1777827541 | 11.11° C | 49% | 1015.3 hPa | 0 mm | - | 419 W/m² | - |
| 1777827239 | 11.67° C | 47% | 1015.2 hPa | 0 mm | - | 1009 W/m² | - |
| 1777826934 | 11.67° C | 44% | 1015.5 hPa | 0 mm | - | 928 W/m² | - |
| 1777826632 | 11.11° C | 49% | 1015.5 hPa | 0 mm | - | 897 W/m² | - |
| 1777826327 | 11.11° C | 47% | 1015.6 hPa | 0 mm | - | 776 W/m² | - |
| 1777826026 | 10.56° C | 48% | 1015.5 hPa | 0 mm | - | 443 W/m² | - |
| 1777825722 | 10.56° C | 48% | 1015.6 hPa | 0 mm | - | 296 W/m² | - |
| 1777825420 | 11.67° C | 48% | 1015.7 hPa | 0 mm | - | 458 W/m² | - |
| 1777825117 | 10.56° C | 47% | 1015.5 hPa | 0 mm | - | 986 W/m² | - |
| 1777824813 | 10.56° C | 47% | 1015.7 hPa | 0 mm | - | 944 W/m² | - |
| 1777824510 | 10° C | 51% | 1015.8 hPa | 0 mm | - | 313 W/m² | - |
| 1777824206 | 10.56° C | 46% | 1015.8 hPa | 0 mm | - | 298 W/m² | - |
| 1777823902 | 10° C | 48% | 1015.9 hPa | 0 mm | - | 975 W/m² | - |
| 1777823600 | 9.44° C | 51% | 1015.9 hPa | 0 mm | - | 937 W/m² | - |
| 1777823296 | 9.44° C | 47% | 1015.8 hPa | 0 mm | - | 254 W/m² | - |
| 1777822994 | 10.56° C | 47% | 1016 hPa | 0 mm | - | 373 W/m² | - |
| 1777822692 | 10.56° C | 47% | 1015.9 hPa | 0 mm | - | 319 W/m² | - |
| 1777822390 | 10° C | 51% | 1015.7 hPa | 0 mm | - | 350 W/m² | - |
| 1777822087 | 10° C | 51% | 1015.9 hPa | 0 mm | - | 651 W/m² | - |
* Rain latest hour (hover to see other rain measurements)
** Current wind speed in m/s (hover to see current wind gust speed)